This demonstration page uses our WeatherBlox Daily Observations layout. Learn more.

Left ArrowRight Arrow

38.88101, -77.10428

Hourly Observations for December 24, 2015

Temp ( °F °C ) Dew Point ( °F °C ) Humidity (%) Winds ( mph kmh ) Pressure ( in mb ) Visibility ( mi km ) Precip ( " mm )
12:23 am 00:23 Cloudy 65 18.3 64 17.8 97 97 SSW 10 17 29.85 1011 10 16 N/A
12:52 am 00:52 Cloudy 66 18.9 64 17.8 93 93 SSW 10 17 29.85 1011 10 16 N/A
1:52 am 01:52 Cloudy 66 18.9 63 17.2 90 90 S 12 19 29.84 1010 10 16 N/A
2:20 am 02:20 Cloudy 66 19 63 17 88 88 S 15 24 29.83 1010 10 16 N/A
2:52 am 02:52 Cloudy 67 19.4 63 17.2 87 87 SSW 16 26 29.85 1011 10 16 N/A
3:52 am 03:52 Cloudy 66 18.9 61 16.1 84 84 SSW 16 26 29.87 1011 10 16 N/A
4:52 am 04:52 Cloudy 67 19.4 61 16.1 81 81 SSW 20 31 29.90 1013 10 16 N/A
5:52 am 05:52 Cloudy with Light Rain 65 18.3 61 16.1 87 87 S 16 26 29.91 1013 10 16 0.03 0.76
6:09 am 06:09 Cloudy with Light Rain 65 18.3 62 16.7 90 90 S 15 24 29.91 1013 10 16 0.02 0.51
6:28 am 06:28 Cloudy with Heavy Rain 64 18 63 17 94 94 SSW 15 24 29.94 1014 4 6 N/A
6:52 am 06:52 Cloudy 65 18.3 62 16.7 90 90 SSW 13 20 29.93 1014 10 16 0.06 1.52
7:28 am 07:28 Cloudy with Rain 64 18 63 17 94 94 SSW 15 24 29.97 1015 7 11 N/A
7:39 am 07:39 Cloudy with Rain 65 18.3 63 17.2 93 93 S 14 22 29.97 1015 4 6 0.07 1.78
7:52 am 07:52 Cloudy with Light Rain 65 18.3 63 17.2 93 93 S 13 20 29.96 1015 10 16 0.08 2.03
8:52 am 08:52 Cloudy with Light Rain 66 18.9 64 17.8 93 93 SSW 14 22 29.96 1015 10 16 0.03 0.76
9:06 am 09:06 Cloudy 64 18 64 18 100 100 S 16 26 29.97 1015 10 16 N/A
9:28 am 09:28 Cloudy 64 18 63 17 94 94 S 13 20 29.97 1015 10 16 N/A
9:37 am 09:37 Cloudy 66 18.9 64 17.8 93 93 S 10 17 29.97 1015 10 16 N/A
9:52 am 09:52 Cloudy with Light Rain 69 20.6 66 18.9 90 90 SSW 15 24 30.00 1016 10 16 N/A
10:52 am 10:52 Cloudy 69 20.6 66 18.9 90 90 SSW 14 22 30.01 1016 10 16 N/A
11:43 am 11:43 Cloudy 66 18.9 64 17.8 93 93 S 14 22 30.00 1016 10 16 N/A
11:52 am 11:52 Cloudy 65 18.3 63 17.2 93 93 S 10 17 30.01 1016 10 16 N/A
12:26 pm 12:26 Cloudy 70 21 66 19 88 88 SSW 10 17 30.00 1016 10 16 N/A
12:42 pm 12:42 Cloudy 70 21 66 19 88 88 SW 12 19 30.00 1016 10 16 N/A
12:52 pm 12:52 Cloudy 70 21.1 66 18.9 87 87 SSW 9 15 30.01 1016 10 16 N/A
1:52 pm 13:52 Cloudy 65 18.3 63 17.2 93 93 S 12 19 30.01 1016 10 16 N/A
2:01 pm 14:01 Cloudy 67 19.4 64 17.8 91 91 S 10 17 30.03 1017 10 16 N/A
2:31 pm 14:31 Cloudy 71 21.7 66 18.9 84 84 SW 8 13 30.03 1017 10 16 N/A
2:52 pm 14:52 Cloudy 71 21.7 66 18.9 84 84 SSW 8 13 30.03 1017 10 16 N/A
3:14 pm 15:14 Cloudy 66 18.9 63 17.2 90 90 S 8 13 30.03 1017 10 16 N/A
3:52 pm 15:52 Cloudy 66 18.9 63 17.2 90 90 S 8 13 30.04 1017 10 16 N/A
4:19 pm 16:19 Cloudy 67 19.4 64 17.8 91 91 S 9 15 30.06 1018 10 16 N/A
4:52 pm 16:52 Cloudy 66 18.9 64 17.8 93 93 S 8 13 30.06 1018 10 16 N/A
5:52 pm 17:52 Cloudy 64 17.8 62 16.7 93 93 N N/A 30.05 1018 10 16 N/A
6:52 pm 18:52 Cloudy 65 18.3 64 17.8 97 97 S 9 15 30.10 1019 10 16 N/A
7:02 pm 19:02 Cloudy 66 18.9 64 17.8 93 93 S 7 11 30.12 1020 10 16 N/A
7:52 pm 19:52 Cloudy 65 18.3 63 17.2 93 93 S 7 11 30.11 1020 10 16 N/A
8:13 pm 20:13 Cloudy 63 17.2 61 16.1 93 93 S 3 6 30.12 1020 10 16 N/A
8:52 pm 20:52 Cloudy 63 17.2 62 16.7 97 97 N N/A 30.11 1020 10 16 N/A
9:52 pm 21:52 Cloudy 63 17.2 63 17.2 100 100 S 5 7 30.11 1020 8 13 N/A
9:59 pm 21:59 Cloudy with Fog 63 17.2 62 16.7 97 97 S 6 9 30.12 1020 10 16 N/A
10:06 pm 22:06 Cloudy with Patchy Fog 63 17 61 16 94 94 SSW 5 7 30.12 1020 10 16 N/A
10:20 pm 22:20 Cloudy with Patchy Fog 63 17 63 17 100 100 S 7 11 30.12 1020 10 16 N/A
10:29 pm 22:29 Cloudy with Patchy Fog 64 17.8 63 17.2 96 96 S 8 13 30.12 1020 10 16 N/A
10:39 pm 22:39 Cloudy with Patchy Fog 63 17.2 63 17.2 100 100 S 8 13 30.12 1020 10 16 N/A
10:52 pm 22:52 Cloudy with Patchy Fog 62 16.7 61 16.1 96 96 S 7 11 30.11 1020 10 16 N/A
11:11 pm 23:11 Cloudy with Patchy Fog 62 16.7 61 16.1 96 96 N N/A 30.12 1020 10 16 N/A
11:52 pm 23:52 Cloudy 62 16.7 62 16.7 100 100 N N/A 30.11 1020 10 16 N/A

Powered by AerisWeather